| time (UTC) | temp F | wind direction | speed MPH | gust MPH | rain 1hr in | rain 24hr in | rain mn in | humidity % | barometer mb |
| 20260508141548 | 52 | 154 | 3.0 | 5.0 | 0.00 | 1.04 | 0.00 | 88 | 1002.3 |
| 20260508140046 | 51 | 138 | 3.0 | 6.0 | 0.00 | 1.04 | 0.00 | 90 | 1002.4 |
| 20260508134543 | 51 | 165 | 2.0 | 4.0 | 0.00 | 1.04 | 0.00 | 94 | 1002.6 |
| 20260508133100 | 50 | 140 | 2.0 | 5.0 | 0.00 | 1.04 | 0.00 | 95 | 1003.0 |
| 20260508131541 | 51 | 136 | 3.0 | 7.0 | 0.00 | 1.04 | 0.00 | 95 | 1002.9 |
| 20260508130039 | 51 | 113 | 3.0 | 6.0 | 0.00 | 1.04 | 0.00 | 97 | 1002.7 |
| 20260508124537 | 50 | 30 | 2.0 | 5.0 | 0.00 | 1.04 | 0.00 | 98 | 1002.4 |
| 20260508123039 | 49 | 98 | 1.0 | 4.0 | 0.00 | 1.04 | 0.00 | 99 | 1002.4 |
| 20260508121536 | 48 | 212 | 2.0 | 5.0 | 0.00 | 1.04 | 0.00 | 99 | 1002.5 |
| 20260508120033 | 46 | 60 | 0.0 | 4.0 | 0.00 | 1.04 | 0.00 | 99 | 1002.3 |
| 20260508114532 | 46 | 73 | 0.0 | 3.0 | 0.00 | 1.04 | 0.00 | 99 | 1002.8 |
| 20260508113037 | 46 | 96 | 2.0 | 4.0 | 0.00 | 1.04 | 0.00 | 99 | 1002.8 |
| 20260508111530 | 46 | 350 | 0.0 | 3.0 | 0.00 | 1.04 | 0.00 | 99 | 1003.0 |
| 20260508110028 | 45 | 2 | 2.0 | 4.0 | 0.00 | 1.04 | 0.00 | 99 | 1002.6 |
| 20260508104527 | 45 | 10 | 0.0 | 0.0 | 0.00 | 1.04 | 0.00 | 100 | 1002.9 |
| 20260508103028 | 42 | 10 | 0.0 | 0.0 | 0.00 | 1.04 | 0.00 | 99 | 1003.2 |
| 20260508101526 | 42 | 10 | 0.0 | 0.0 | 0.00 | 1.04 | 0.00 | 99 | 1002.9 |
| 20260508100025 | 41 | 10 | 0.0 | 0.0 | 0.00 | 1.04 | 0.00 | 99 | 1003.0 |
| 20260508094524 | 40 | 10 | 0.0 | 0.0 | 0.00 | 1.04 | 0.00 | 99 | 1003.1 |
| 20260508093023 | 40 | 10 | 0.0 | 0.0 | 0.00 | 1.04 | 0.00 | 99 | 1002.6 |
| 20260508091532 | 40 | 10 | 0.0 | 0.0 | 0.00 | 1.04 | 0.00 | 99 | 1002.3 |
| 20260508090021 | 40 | 10 | 0.0 | 0.0 | 0.00 | 1.04 | 0.00 | 99 | 1002.2 |
| 20260508084519 | 41 | 10 | 0.0 | 0.0 | 0.00 | 1.04 | 0.00 | 99 | 1002.2 |
| 20260508083028 | 41 | 10 | 0.0 | 0.0 | 0.00 | 1.04 | 0.00 | 99 | 1002.4 |
| 20260508081516 | 41 | 10 | 0.0 | 0.0 | 0.00 | 1.04 | 0.00 | 98 | 1001.9 |
| 20260508080013 | 42 | 10 | 0.0 | 0.0 | 0.00 | 1.04 | 0.00 | 99 | 1001.8 |
| 20260508074511 | 42 | 10 | 0.0 | 0.0 | 0.00 | 1.04 | 0.00 | 99 | 1001.8 |
| 20260508073010 | 43 | 10 | 0.0 | 0.0 | 0.00 | 1.04 | 0.00 | 98 | 1002.0 |
| 20260508071509 | 43 | 10 | 0.0 | 0.0 | 0.00 | 1.04 | 0.00 | 98 | 1002.0 |
| 20260508070006 | 44 | 10 | 0.0 | 0.0 | 0.00 | 1.04 | 0.00 | 98 | 1002.1 |
| 20260508064502 | 44 | 10 | 0.0 | 0.0 | 0.00 | 1.04 | 0.00 | 98 | 1002.1 |
| 20260508063139 | 45 | 10 | 0.0 | 0.0 | 0.00 | 1.04 | 0.00 | 98 | 1001.9 |
| 20260508061558 | 45 | 10 | 0.0 | 0.0 | 0.00 | 1.04 | 0.00 | 99 | 1001.9 |
| 20260508060057 | 46 | 10 | 0.0 | 2.0 | 0.00 | 1.04 | 0.00 | 99 | 1002.1 |
| 20260508054555 | 46 | 12 | 0.0 | 3.0 | 0.00 | 1.04 | 0.00 | 99 | 1002.1 |
| 20260508053100 | 46 | 285 | 1.0 | 4.0 | 0.00 | 1.04 | 0.00 | 99 | 1002.4 |
| 20260508051616 | 46 | 280 | 0.0 | 2.0 | 0.00 | 1.04 | 0.00 | 98 | 1002.1 |
| 20260508050049 | 46 | 280 | 0.0 | 0.0 | 0.00 | 1.04 | 0.00 | 99 | 1002.0 |
| 20260508044545 | 46 | 280 | 0.0 | 1.0 | 0.00 | 1.04 | 0.00 | 98 | 1001.9 |
| 20260508043043 | 47 | 280 | 0.0 | 2.0 | 0.00 | 1.04 | 0.00 | 98 | 1001.8 |
| 20260508041540 | 47 | 280 | 0.0 | 0.0 | 0.00 | 1.04 | 0.00 | 98 | 1002.0 |
| 20260508040038 | 48 | 281 | 0.0 | 2.0 | 0.00 | 1.04 | 0.00 | 99 | 1002.2 |
| 20260508034535 | 48 | 280 | 0.0 | 1.0 | 0.00 | 1.04 | 0.00 | 98 | 1002.3 |
| 20260508033040 | 49 | 280 | 1.0 | 3.0 | 0.00 | 1.04 | 0.00 | 99 | 1002.5 |
| 20260508031532 | 49 | 280 | 2.0 | 4.0 | 0.00 | 1.04 | 0.00 | 99 | 1002.5 |
| 20260508030029 | 49 | 301 | 2.0 | 5.0 | 0.00 | 1.04 | 0.00 | 99 | 1002.6 |
| 20260508024531 | 48 | 169 | 0.0 | 1.0 | 0.00 | 1.04 | 1.04 | 99 | 1002.6 |
| 20260508023033 | 47 | 169 | 0.0 | 0.0 | 0.00 | 1.04 | 1.04 | 99 | 1002.8 |
| 20260508021533 | 47 | 169 | 0.0 | 4.0 | 0.00 | 1.04 | 1.04 | 99 | 1002.6 |
| 20260508020028 | 47 | 169 | 0.0 | 0.0 | 0.00 | 1.04 | 1.04 | 98 | 1002.5 |
| 20260508014527 | 47 | 169 | 0.0 | 1.0 | 0.00 | 1.04 | 1.04 | 98 | 1002.5 |
| 20260508013026 | 48 | 169 | 0.0 | 3.0 | 0.00 | 1.04 | 1.04 | 98 | 1002.8 |
| 20260508011531 | 48 | 169 | 0.0 | 1.0 | 0.00 | 1.04 | 1.04 | 98 | 1002.4 |
| 20260508010037 | 49 | 170 | 1.0 | 3.0 | 0.00 | 1.04 | 1.04 | 99 | 1002.3 |
| 20260508004524 | 50 | 170 | 0.0 | 1.0 | 0.00 | 1.04 | 1.04 | 98 | 1002.2 |
| 20260508003023 | 50 | 170 | 0.0 | 3.0 | 0.00 | 1.04 | 1.04 | 98 | 1002.4 |
| 20260508001523 | 50 | 170 | 0.0 | 0.0 | 0.00 | 1.04 | 1.04 | 98 | 1002.6 |
| 20260508000025 | 50 | 170 | 0.0 | 2.0 | 0.00 | 1.04 | 1.04 | 99 | 1002.6 |
| 20260507234522 | 50 | 170 | 0.0 | 0.0 | 0.00 | 1.04 | 1.04 | 99 | 1002.7 |
| 20260507233022 | 50 | 170 | 0.0 | 2.0 | 0.00 | 1.04 | 1.04 | 99 | 1002.7 |
| 20260507231521 | 50 | 170 | 0.0 | 1.0 | 0.00 | 1.04 | 1.04 | 98 | 1002.6 |
| 20260507230035 | 51 | 170 | 1.0 | 3.0 | 0.00 | 1.04 | 1.04 | 98 | 1002.5 |
| 20260507224522 | 51 | 170 | 0.0 | 4.0 | 0.00 | 1.04 | 1.04 | 98 | 1002.7 |
| 20260507223030 | 51 | 173 | 2.0 | 5.0 | 0.00 | 1.04 | 1.04 | 98 | 1002.8 |
| 20260507221518 | 51 | 174 | 2.0 | 4.0 | 0.00 | 1.04 | 1.04 | 99 | 1002.7 |
| 20260507220018 | 51 | 177 | 0.0 | 6.0 | 0.00 | 1.04 | 1.04 | 99 | 1002.7 |
| 20260507214518 | 51 | 190 | 4.0 | 7.0 | 0.00 | 1.04 | 1.04 | 99 | 1002.9 |
| 20260507213017 | 50 | 113 | 0.0 | 2.0 | 0.01 | 1.04 | 1.04 | 99 | 1003.2 |
| 20260507211516 | 50 | 114 | 0.0 | 2.0 | 0.02 | 1.04 | 1.04 | 98 | 1003.2 |
| 20260507210017 | 49 | 113 | 0.0 | 2.0 | 0.04 | 1.04 | 1.04 | 98 | 1002.7 |
| 20260507204514 | 49 | 114 | 1.0 | 5.0 | 0.06 | 1.04 | 1.04 | 98 | 1002.4 |
| 20260507203027 | 49 | 152 | 3.0 | 7.0 | 0.09 | 1.03 | 1.03 | 98 | 1002.3 |
| 20260507201506 | 48 | 115 | 4.0 | 9.0 | 0.15 | 1.02 | 1.02 | 97 | 1003.0 |
| 20260507200003 | 49 | 83 | 2.0 | 7.0 | 0.20 | 1.00 | 1.00 | 97 | 1003.4 |
| 20260507194501 | 51 | 152 | 5.0 | 7.0 | 0.30 | 0.98 | 0.98 | 97 | 1003.7 |
| 20260507193100 | 52 | 162 | 2.0 | 4.0 | 0.34 | 0.94 | 0.94 | 97 | 1003.9 |
| 20260507191557 | 52 | 183 | 0.0 | 2.0 | 0.37 | 0.87 | 0.87 | 97 | 1004.4 |
| 20260507190055 | 52 | 183 | 2.0 | 10.0 | 0.43 | 0.80 | 0.80 | 98 | 1004.9 |
| 20260507184553 | 52 | 197 | 3.0 | 7.0 | 0.51 | 0.69 | 0.69 | 97 | 1005.1 |
| 20260507183055 | 52 | 185 | 3.0 | 7.0 | 0.50 | 0.61 | 0.61 | 97 | 1005.2 |
| 20260507181558 | 51 | 177 | 3.0 | 8.0 | 0.43 | 0.50 | 0.50 | 97 | 1005.6 |
| 20260507180054 | 51 | 183 | 0.0 | 6.0 | 0.32 | 0.37 | 0.37 | 97 | 1005.9 |
| 20260507174556 | 51 | 211 | 4.0 | 15.0 | 0.16 | 0.17 | 0.17 | 97 | 1005.8 |
| 20260507173054 | 51 | 184 | 3.0 | 15.0 | 0.10 | 0.11 | 0.11 | 97 | 1005.0 |
| 20260507171558 | 51 | 156 | 6.0 | 13.0 | 0.06 | 0.07 | 0.07 | 97 | 1005.1 |
| 20260507170049 | 51 | 135 | 4.0 | 10.0 | 0.04 | 0.05 | 0.05 | 97 | 1005.5 |
| 20260507164542 | 51 | 142 | 2.0 | 6.0 | 0.01 | 0.02 | 0.02 | 97 | 1006.1 |
| 20260507163042 | 50 | 113 | 3.0 | 5.0 | 0.01 | 0.01 | 0.01 | 96 | 1006.6 |
| 20260507161544 | 50 | 119 | 2.0 | 6.0 | 0.01 | 0.01 | 0.01 | 95 | 1007.1 |
| 20260507160039 | 51 | 120 | 2.0 | 5.0 | 0.01 | 0.01 | 0.01 | 95 | 1007.5 |
| 20260507154533 | 51 | 171 | 3.0 | 7.0 | 0.00 | 0.00 | 0.00 | 94 | 1008.0 |
| 20260507153035 | 52 | 167 | 2.0 | 10.0 | 0.00 | 0.00 | 0.00 | 94 | 1008.3 |
| 20260507151530 | 53 | 169 | 2.0 | 10.0 | 0.00 | 0.00 | 0.00 | 93 | 1008.7 |
| 20260507150028 | 53 | 198 | 7.0 | 14.0 | 0.00 | 0.00 | 0.00 | 92 | 1009.0 |
| 20260507144529 | 54 | 150 | 2.0 | 5.0 | 0.00 | 0.00 | 0.00 | 93 | 1009.1 |
| 20260507143025 | 54 | 148 | 3.0 | 8.0 | 0.00 | 0.00 | 0.00 | 92 | 1009.4 |